DW8199 Weather Reports


Display with metric or nautical units.
time (UTC)temp
F
wind
direction
speed
MPH
gust
MPH
rain 1hr
in
rain 24hr
in
rain mn
in
humidity
%
barometer
mb
20260831001515 73 0.0 0.0 0.00 0.00 0.00 85 1019.3
20260831000515 73 0.0 0.0 0.00 0.00 0.00 85 1019.2
20260830235515 73 0.0 0.0 0.00 0.00 0.00 84 1019.3
20260830234515 74 0.0 0.0 0.00 0.00 0.00 83 1019.2
20260830233515 74 0.0 0.0 0.00 0.00 0.00 83 1019.0
20260830232515 74 0.0 0.0 0.00 0.00 0.00 83 1019.0
20260830231515 74 0.0 0.0 0.00 0.00 0.00 83 1018.7
20260830230016 75 94 0.0 1.0 0.00 0.00 0.00 82 1018.9
20260830225036 75 93 0.0 1.0 0.00 0.00 0.00 82 1018.7
20260830224017 75 94 0.0 2.0 0.00 0.00 0.00 80 1018.7
20260830223016 75 293 1.0 2.0 0.00 0.00 0.00 79 1018.4
20260830222036 75 86 1.0 2.0 0.00 0.00 0.00 81 1018.3
20260830221016 75 97 0.0 1.0 0.00 0.00 0.00 81 1018.6
20260830220016 76 98 1.0 1.0 0.00 0.00 0.00 81 1018.8
20260830215016 76 101 0.0 1.0 0.00 0.00 0.00 81 1018.9
20260830214015 77 0.0 0.0 0.00 0.00 0.00 81 1018.7
20260830213618 77 0.0 0.0 0.00 0.00 0.00 80 1018.7
20260830213015 77 0.0 1.0 0.00 0.00 0.00 80 1018.7
20260830212035 77 88 0.0 2.0 0.00 0.00 0.00 79 1018.7
20260830211015 78 100 0.0 2.0 0.00 0.00 0.00 80 1019.0
20260830210035 77 0.0 1.0 0.00 0.00 0.00 80 1019.1
20260830205015 77 101 0.0 1.0 0.00 0.00 0.00 80 1019.2
20260830204015 78 101 0.0 1.0 0.00 0.00 0.00 79 1019.4
20260830203015 79 107 0.0 1.0 0.00 0.00 0.00 77 1019.7
20260830202015 80 107 0.0 1.0 0.00 0.00 0.00 75 1019.8
20260830201015 82 111 0.0 1.0 0.00 0.00 0.00 71 1020.0
20260830200035 82 261 0.0 2.0 0.00 0.00 0.00 66 1020.0
20260830195015 82 227 0.0 5.0 0.00 0.00 0.00 65 1020.2
20260830194036 83 263 1.0 4.0 0.00 0.00 0.00 64 1020.4
20260830193035 83 290 1.0 3.0 0.00 0.00 0.00 65 1020.6
20260830192015 83 229 2.0 5.0 0.00 0.00 0.00 65 1020.7
20260830191017 82 278 1.0 4.0 0.00 0.00 0.00 67 1020.9
20260830190017 83 288 1.0 5.0 0.00 0.00 0.00 65 1020.9
20260830185017 83 259 2.0 6.0 0.00 0.00 0.00 66 1021.0
20260830184017 84 292 2.0 6.0 0.00 0.00 0.00 64 1021.1
20260830183017 84 299 2.0 6.0 0.00 0.00 0.00 64 1021.1
20260830182017 84 290 2.0 5.0 0.00 0.00 0.00 64 1021.1
20260830181017 85 294 2.0 6.0 0.00 0.00 0.00 62 1021.1
20260830180017 84 223 2.0 6.0 0.00 0.00 0.00 64 1021.2
20260830175017 84 222 2.0 6.0 0.00 0.00 0.00 66 1021.3
20260830174016 83 235 1.0 5.0 0.00 0.00 0.00 65 1021.4
20260830173017 83 304 1.0 4.0 0.00 0.00 0.00 64 1021.5
20260830172017 84 231 2.0 5.0 0.00 0.00 0.00 64 1021.6
20260830171016 84 299 2.0 6.0 0.00 0.00 0.00 64 1021.8
20260830170017 83 298 1.0 4.0 0.00 0.00 0.00 65 1021.9
20260830165017 84 288 1.0 3.0 0.00 0.00 0.00 65 1022.0
20260830164017 84 217 0.0 2.0 0.00 0.00 0.00 68 1022.0
20260830163017 84 217 0.0 4.0 0.00 0.00 0.00 64 1021.9
20260830162016 84 143 1.0 5.0 0.00 0.00 0.00 65 1021.9
20260830161016 85 239 1.0 5.0 0.00 0.00 0.00 62 1022.0
20260830160037 84 185 1.0 3.0 0.00 0.00 0.00 65 1022.1
20260830155016 83 222 1.0 5.0 0.00 0.00 0.00 66 1022.1
20260830154016 82 219 0.0 2.0 0.00 0.00 0.00 71 1022.2
20260830153037 81 218 1.0 3.0 0.00 0.00 0.00 73 1022.2
20260830152016 80 108 1.0 2.0 0.00 0.00 0.00 75 1022.1
20260830151017 79 196 0.0 2.0 0.00 0.00 0.00 76 1021.9
20260830150017 77 126 0.0 2.0 0.00 0.00 0.00 80 1021.8
20260830145016 77 280 0.0 2.0 0.00 0.00 0.00 78 1021.7
20260830144016 76 240 0.0 3.0 0.00 0.00 0.00 81 1021.5
20260830143017 74 220 1.0 3.0 0.00 0.00 0.00 82 1021.3
20260830142017 73 216 1.0 2.0 0.00 0.00 0.00 86 1021.2
20260830141017 72 203 0.0 1.0 0.00 0.00 0.00 88 1021.2
20260830140017 71 0.0 0.0 0.00 0.00 0.00 89 1021.2
20260830135017 69 0.0 0.0 0.00 0.00 0.00 90 1021.2
20260830134016 68 0.0 0.0 0.00 0.00 0.00 91 1021.1
20260830133016 67 0.0 0.0 0.00 0.00 0.00 91 1021.1
20260830132017 66 0.0 0.0 0.00 0.00 0.00 91 1021.0
20260830131057 66 0.0 0.0 0.00 0.00 0.00 91 1021.1
20260830130037 65 0.0 0.0 0.00 0.00 0.00 91 1021.2
20260830125016 65 0.0 0.0 0.00 0.00 0.00 91 1021.2
20260830124016 64 0.0 0.0 0.00 0.00 0.00 91 1021.2
20260830123017 64 0.0 0.0 0.00 0.00 0.00 92 1021.2
20260830122017 64 0.0 0.0 0.00 0.00 0.00 92 1021.2
20260830121016 63 0.0 0.0 0.00 0.00 0.00 92 1021.2
20260830120017 63 0.0 0.0 0.00 0.00 0.00 92 1021.2
20260830115017 63 0.0 0.0 0.00 0.00 0.00 92 1021.2
20260830114037 63 0.0 0.0 0.00 0.00 0.00 92 1021.2
20260830113017 62 0.0 0.0 0.00 0.00 0.00 92 1021.2
20260830112015 62 0.0 0.0 0.00 0.00 0.00 92 1021.3
20260830111016 62 0.0 0.0 0.00 0.00 0.00 92 1021.4
20260830110035 62 0.0 0.0 0.00 0.00 0.00 92 1021.3
20260830105035 62 0.0 0.0 0.00 0.00 0.00 91 1021.3
20260830104015 62 0.0 0.0 0.00 0.00 0.00 91 1021.2
20260830103015 62 0.0 0.0 0.00 0.00 0.00 91 1021.2
20260830102016 62 0.0 0.0 0.00 0.00 0.00 91 1021.1
20260830101015 62 0.0 0.0 0.00 0.00 0.00 91 1021.1
20260830100015 62 0.0 0.0 0.00 0.00 0.00 91 1021.2
20260830095016 62 0.0 0.0 0.00 0.00 0.00 91 1021.2
20260830094015 62 0.0 0.0 0.00 0.00 0.00 91 1021.2
20260830093036 62 0.0 0.0 0.00 0.00 0.00 91 1021.2
20260830092016 62 0.0 0.0 0.00 0.00 0.00 91 1021.2
20260830091015 61 0.0 0.0 0.00 0.00 0.00 91 1021.3
20260830090015 61 0.0 0.0 0.00 0.00 0.00 91 1021.4
20260830085015 61 0.0 0.0 0.00 0.00 0.00 91 1021.3
20260830084015 61 0.0 0.0 0.00 0.00 0.00 91 1021.5
20260830083036 61 0.0 0.0 0.00 0.00 0.00 91 1021.7
20260830082015 61 0.0 0.0 0.00 0.00 0.00 91 1021.7
20260830081015 61 0.0 0.0 0.00 0.00 0.00 91 1021.6
20260830080015 61 0.0 0.0 0.00 0.00 0.00 91 1021.7
20260830075015 61 0.0 0.0 0.00 0.00 0.00 91 1021.7
20260830073535 61 0.0 0.0 0.00 0.00 0.00 91 1021.7
20260830072515 61 0.0 0.0 0.00 0.00 0.00 91 1021.8
20260830071515 61 0.0 0.0 0.00 0.00 0.00 91 1021.8
20260830070515 62 0.0 0.0 0.00 0.00 0.00 91 1021.9
20260830065515 62 0.0 0.0 0.00 0.00 0.00 91 1021.8
20260830064515 62 0.0 0.0 0.00 0.00 0.00 91 1021.8
20260830063515 62 0.0 0.0 0.00 0.00 0.00 91 1021.9
20260830062515 62 0.0 0.0 0.00 0.00 0.00 91 1021.9
20260830061515 62 0.0 0.0 0.00 0.00 0.00 91 1022.0
20260830060516 62 0.0 0.0 0.00 0.00 0.00 91 1022.0
20260830055515 62 0.0 0.0 0.00 0.00 0.00 91 1022.0
20260830054516 62 0.0 0.0 0.00 0.00 0.00 91 1022.1
20260830053516 62 0.0 0.0 0.00 0.00 0.00 91 1022.0
20260830052515 62 0.0 0.0 0.00 0.00 0.00 91 1021.9
20260830051515 62 0.0 0.0 0.00 0.00 0.00 91 1021.9
20260830050515 63 0.0 0.0 0.00 0.00 0.00 90 1022.0
20260830045515 63 0.0 0.0 0.00 0.00 0.00 90 1021.9
20260830044515 63 0.0 0.0 0.00 0.00 0.00 90 1021.6
20260830043535 63 0.0 0.0 0.00 0.00 0.00 90 1021.6
20260830042535 63 0.0 0.0 0.00 0.00 0.00 90 1021.6
20260830041536 64 0.0 0.0 0.00 0.00 0.00 90 1021.6
20260830040515 64 0.0 0.0 0.00 0.00 0.00 90 1021.8
20260830035536 64 0.0 0.0 0.00 0.00 0.00 90 1021.6
20260830034517 64 0.0 0.0 0.00 0.00 0.00 89 1021.6
20260830033517 64 0.0 0.0 0.00 0.00 0.00 89 1021.5
20260830032516 65 0.0 0.0 0.00 0.00 0.00 89 1021.4
20260830031537 65 0.0 0.0 0.00 0.00 0.00 89 1021.5
20260830030517 65 0.0 0.0 0.00 0.00 0.00 88 1021.5
20260830025516 66 0.0 0.0 0.00 0.00 0.00 88 1021.4
20260830024516 66 0.0 0.0 0.00 0.00 0.00 87 1021.4
20260830023516 66 0.0 0.0 0.00 0.00 0.00 87 1021.4
20260830022516 67 0.0 0.0 0.00 0.00 0.00 87 1021.5
20260830021516 67 0.0 0.0 0.00 0.00 0.00 86 1021.5
20260830020537 67 0.0 0.0 0.00 0.00 0.00 85 1021.5
20260830015516 68 0.0 0.0 0.00 0.00 0.00 84 1021.3
20260830014516 68 0.0 0.0 0.00 0.00 0.00 84 1021.3
20260830013556 68 0.0 0.0 0.00 0.00 0.00 83 1021.1
20260830012516 68 0.0 0.0 0.00 0.00 0.00 82 1020.9
20260830011516 69 0.0 0.0 0.00 0.00 0.00 83 1020.9
20260830010536 69 0.0 0.0 0.00 0.00 0.00 83 1020.8
20260830005516 70 0.0 0.0 0.00 0.00 0.00 82 1020.8
20260830004516 70 0.0 0.0 0.00 0.00 0.00 81 1020.7
20260830003516 71 0.0 0.0 0.00 0.00 0.00 79 1020.8
20260830002516 71 0.0 0.0 0.00 0.00 0.00 78 1020.8